Aérodrome :
LOGIN :

S'inscrire | Disclaimer

   EN    FR    IT 

 










Légende :    VFR   VFR Marginal   IFR   IFR Intensif   IFR Très Intensif
Visi : 
Plafond : 
>= 8 km
>= 3000ft
5 à 8 km
1000 à 3000 ft
1500m à 5 km
500 à 1000 ft
800 à 1500m
200 à 500 ft
< 800m
< 200 ft
Symboles :   Orages  Brouillard  Fortes neiges  Fortes précipitations  Vent > 20 kt
SIGMETs :   Divers  Orages  Givrage  Turbulence  Onde Orograph.  Cendres Volcan.







- Altitude de l'aérodrome : 1649 ft
- Code IATA : HHN


EDFH - Frankfurt-Hahn Rhineland-Palatinate

DERNIER METAR :
  • 230750Z 27008KT 9999 FEW020 BKN027 17/13 Q1018

METARs EXPIRÉS :
  • 230720Z 27008KT 9999 BKN020 17/13 Q1018
  • 230650Z 27006KT 9999 BKN018 16/13 Q1017
  • 230620Z 27005KT 9999 BKN016 16/13 Q1017
  • 230550Z 26006KT 9999 BKN016 15/13 Q1016

TAF TAF EDFH
Valide du 23 à 06h jusqu'au 24 à 06h UTC


230500Z 2306/2406 28006KT 9999 FEW015 SCT030
BECMG 2307/2309 28012KT
BECMG 2318/2320 26007KT
Pas de NOTAMs connus pour ce terrain.



MET'MAP, la Météo Aéronautique d'un coup d'oeil ! - Copyright ORBIFLY Décembre 2007 - Disclaimer

ORBIFLY MET'MAP TEAM :

Programmation & Développement : Alexandra Zaïnal
Conception & Développement : Baudouin d'Aumeries
Co-Programmation & Développement : Marc-Olivier Méhu
Soutien technique & logistique : Manuel Goepfert

Contact : metmap@orbifly.com




SOURCES & CREDITS :

   NOAA